Zurück zum Katalog

HULIANWANG DIGUI-152

AktivKommunikationLEO
NORAD 67528·PAYLOAD·🇨🇳 China

Gestartet Jan 19, 2026 von Wenchang Space Launch Site

Loading…

Nächste Überflüge (nächste 24 Stunden)

TLE

AktuellSource: Space-Track

Epoche: Sep 14, 2026, 10:07 UTC

1 67528U 26013G   26257.42176616 -.00000107  00000-0  35731-4 0  9997
2 67528  50.0053  35.3553 0000837  84.7196 275.3772 13.29330959 31922

Verfolge HULIANWANG DIGUI-152 in Echtzeit mit AllMySat

Download on the App Store